Regional Weather Roundup
Issued by NWS

Home | Current Version | Previous Version | Text Only | Print | Product List | Glossary On
Versions: 1 2 3 4 5 6 7 8 9 10 11 12 13 14 15 16 17 18 19 20 21 22 23 24 25 26 27 28 29 30 31 32 33 34 35 36 37 38 39 40 41 42 43 44 45 46 47 48 49 50
000
ASHW40 PHFO 251832
RWRHI

WEATHER ROUNDUP FOR HAWAII
NATIONAL WEATHER SERVICE HONOLULU HI
800 AM HST WED APR 25 2018

THIS IS AN AUTOMATED REPORT THAT HAS NOT BEEN QUALITY CONTROLLED.

NOTE..."FAIR" INDICATES FEW OR NO CLOUDS BELOW 12,000 FEET WITH NO
SIGNIFICANT WEATHER AND/OR OBSTRUCTIONS TO VISIBILITY.

* - THESE SITES REPORT LIMITED FIELDS
# - BUOY DATA PROVIDED BY PACIFIC ISLANDS OCEAN OBSERVING SYSTEM.

HIZ001>004-251900-
KAUAI-NIIHAU-

CITY           SKY/WX    TMP DP  RH WIND       PRES   REMARKS
LIHUE APT      MOSUNNY   75  66  73 NE17      30.14R
PORT ALLEN*      N/A     73 N/A N/A NE21G28     N/A
POIPU*           N/A     73 N/A N/A NE8G17      N/A
PRINCEVILLE*     N/A     72 N/A N/A SE5G15      N/A
KOKOLE POINT*  NOT AVBL
MOLOAA DAIRY*    N/A     73  64  73 E3G12       N/A
WAIMEA HTS*    NOT AVBL
PUU OPAE*      NOT AVBL
PUU LUA*       NOT AVBL
MAKAHA RIDGE*    N/A     70  57  64 CALM        N/A
$$

HIZ005>011-251900-
OAHU-

CITY           SKY/WX    TMP DP  RH WIND       PRES   REMARKS
HONOLULU       MOSUNNY   77  62  59 E8        30.10R
KALAELOA       SUNNY     76  63  64 NE6       30.11R
KANEOHE MCB    MOSUNNY   75  66  73 NE8       30.10R
WHEELER FIELD  FAIR      73  63  68 E6        30.12R
BELLOWS*         N/A    N/A N/A N/A NE18        N/A
KAHUKU*          N/A    N/A N/A N/A NE10G20     N/A
WHEELER*       NOT AVBL
WAIANAE HARBOR NOT AVBL
DILLINGHAM*    NOT AVBL
KAHUKU TRN*      N/A     75  66  73 W10G21      N/A
KAWAILOA*        N/A     68  61  77 E7G17       N/A
KII*             N/A     75  63  64 E18         N/A
MAKUA RANGE*     N/A     73  59  60 E9G15       N/A
OAHU FOREST NW NOT AVBL
SCHOFIELD BRK*   N/A     64  54  68 N3          N/A
SCHOFIELD S*   NOT AVBL
WAIANAE VLY*   NOT AVBL
KUAOKALA*      NOT AVBL
HONOULIUULI*   NOT AVBL
MOKUOLOE IS*   NOT AVBL
PALEHUA*       NOT AVBL
WAIAWA PHB*    NOT AVBL
$$

HIZ012>013-251900-
MOLOKAI-

CITY           SKY/WX    TMP DP  RH WIND       PRES   REMARKS
MOLOKAI AIRPT  MOSUNNY   75  65  70 NE18G28   30.11R
KALAUPAPA      NOT AVBL
MAKAPULAPAI*     N/A     75  66  73 E20G28      N/A
MOLOKAI 1*     NOT AVBL
PUU ALII*        N/A     56  55  98 N2G14       N/A
$$

HIZ016-251900-
KAHOOLAWE-

CITY           SKY/WX    TMP DP  RH WIND       PRES   REMARKS
KAHOOLAWE*     NOT AVBL
HAKIOAWA*        N/A     71  65  81 MISG        N/A
HONOKANAIA*    NOT AVBL
KANELOA*         N/A     68  64  88 E13G29    30.13
KEALIALALO*    NOT AVBL
LUA MAKIKA*    NOT AVBL
$$

HIZ014>015-251900-
LANAI-

CITY           SKY/WX    TMP DP  RH WIND       PRES   REMARKS
LANAI CITY     PTSUNNY   70  64  83 NE23G30   30.13R
LANAI 1*       NOT AVBL
$$

HIZ017>028-251900-
MAUI-

CITY           SKY/WX    TMP DP  RH WIND       PRES   REMARKS
KAHULUI        MOSUNNY   76  69  79 NE16      30.10R
KAPALUA-W MAUI MOSUNNY   72  66  83 NE17G24   30.10
HANA AIRPORT   NOT AVBL
HANA*            N/A     73 N/A N/A NE12G18     N/A
HALEAKALA SUMM   N/A     46  25  42 N8          N/A
MAALAEA BAY*     N/A     77 N/A N/A N20G31      N/A
HALEAKALA*     NOT AVBL
KAUPO GAP*     NOT AVBL
KULA 1*          N/A     48  41  76 E3          N/A
$$

HIZ023>026-251900-
BIG ISLAND OF HAWAII COAST AND LOWER SLOPES-

CITY           SKY/WX    TMP DP  RH WIND       PRES   REMARKS
KAILUA KONA    PTSUNNY   78  67  68 SE3       30.03R
HILO           MOSUNNY   72  67  84 W6        30.10R
HONOKAA*         N/A     68 N/A N/A VRB1        N/A
KAWAIHAE MWT*    N/A     82 N/A N/A S2          N/A
KAWAIHAE*        N/A     79 N/A N/A NW5       30.02R
SOUTH POINT*     N/A     72 N/A N/A N13         N/A
UPOLU AIRPORT* NOT AVBL
KAMUELA*       CLEAR     70  59  68 NE18      30.16R
HAKALAU*         N/A     52  51  96 NW3         N/A
KALOKO-HONOKO*   N/A     81  70  69 NE3       30.03R
PALI 2*          N/A     70  55  60 N18G26      N/A
KEALAKOMO*       N/A     79  61  53 VRB15G22    N/A
KAUPULEHU*     NOT AVBL
KAPAPALA*      NOT AVBL
LOWER KAHUKU*    N/A     63  54  72 N2G12       N/A
PUHE CS*         N/A     79  61  53 NW3         N/A
PUHO CS*         N/A     76  66  71 SE1         N/A
PTA KEAMUKU*     N/A     66  54  63 NE12G18     N/A
WAIKOLOA*      NOT AVBL
$$

HIZ027>028-251900-
BIG ISLAND OF HAWAII INTERIOR AND SUMMMITS-

CITY           SKY/WX    TMP DP  RH WIND       PRES   REMARKS
BRADSHAW FIELD CLOUDY    56  47  71 SE9       30.35R
MK VISITOR CEN   N/A     52  21  30 S2          N/A
MAUNA KEA*       N/A     37  -4  17 CALM        N/A
MAUNA LOA*       N/A    N/A N/A N/A MISG        N/A
MAUNA LOA 1*   NOT AVBL
PTA KIPUKA*      N/A     61  54  77 NE5         N/A
PTA RANGE 17*    N/A     57  48  72 NW12G18     N/A
PTA WEST*        N/A     64  54  68 S10G17      N/A
NENE CABIN*      N/A     52  46  82 NE3G10      N/A
AHUMOA*        NOT AVBL
PTA PORTABLE*  NOT AVBL
PUU MALI*        N/A    N/A N/A N/A E12G25      N/A
$$

HIC003-251900-
NORTHWEST ISLANDS-

CITY           SKY/WX    TMP DP  RH WIND       PRES   REMARKS
MIDWAY ISLAND  CLOUDY    70  64  83 NE13      30.33R
MIDWAY NOS*      N/A     70 N/A N/A MISG      30.31R
FRENCH FRIGATE NOT AVBL
$$

PHZ110>124-180-251900-
BUOY REPORTS

STATION/POSITION TIME  TEMP    WIND        PRES    WAVE   SWELL
                       AIR SEA DIR/SP/G            HT/PER HT/DIR
                 (UTC) (F)     (DEG/KT/KT) (MB)    (FT/S) (FT/D)
BUOY 51001       1810   80 81   70/ 21/ 27 1012.0
BUOY 51101       1750   72 74   60/ 21/ 25 1022.2R   9/ 8   5
BUOY 51100       NOT AVBL
BUOY 51002       1810   78 78   70/ 21/ 27 1016.1
BUOY 51003       1750   76 78   50/ 17/ 23 1016.8R   8/ 8   5/ 70
BUOY 51004       1810   78 78   70/ 17/ 23   N/A
WAIMEA BAY#      NOT AVBL
MOKAPU POINT#    1804      76                N/A     8/ 8   2/ 30
LANAI#           NOT AVBL
BARBERS PT 2#    NOT AVBL
PAUWELA#         1800      75                N/A     8/ 8   3/340
HILO#            1757      77                N/A     7/ 9   3/ 20
KANEOHE BAY#     NOT AVBL
KANEOHE BAY 2#   NOT AVBL
HANALEI#         1752      76                N/A     7/ 8   2/340
KAHULUI HARBOR   1800   75 76   50/ 15/ 19 1019.2
HONOLULU HARBOR  1800   76 76   80/  3/ 10 1019.0
PEARL HARBOR#    1800      77                N/A     2/ 9   2/160
KILO NALU        NOT AVBL
HILO HARBOR      1800   71 75  250/  2/  3 1019.0
MOKUOLOE         1736   75 76   80/ 10/ 15 1019.9R
NAWILIWILI       1800   74 78   30/ 12/ 15 1020.4
WHOTS BUOY       NOT AVBL
BUOY 51028       NOT AVBL
$$

......................KEY........................................
  SKY/WX - SKY CONDITIONS/PRESENT WEATHER
  TMP    - TEMPERATURE IN FAHRENHEIT
  DWPT   - DEWPOINT IN FAHRENHEIT
  RH     - RELATIVE HUMIDITY IN PERCENT
  WIND   - DIRECTION AND SPEED /MPH FOR ISLANDS...KTS FOR BUOYS/
  PRES   - MEAN SEA LEVEL PRESSURE IN INCHES OF HG
  VSB    - VISIBILITY IN MILES
  HX     - HEAT INDEX
  WCI    - WIND CHILL INDEX
  VRB    - VARIABLE WIND DIRECTION
  N/A    - NOT AVAILABLE




USA.gov is the U.S. government's official web portal to all federal, state and local government web resources and services.